Voltar ao catálogo

ONEWEB-0690

AtivoComunicaçõesPO
NORAD 61598·PAYLOAD·🇬🇧 United Kingdom

Lançado Oct 20, 2024 de Vandenberg Space Force Base

Loading…

Próximas Passagens (próximas 24 horas)

TLE

AtualizadoSource: CelesTrak SupGP

Época: Sep 14, 2026, 22:25 UTC

1 61598C 24188E   26257.93452963 -.00002307  00000+0 -65191-2 0  2579
2 61598  87.8965   3.2252 0002204  89.9509 310.6268 13.11413891    15

Acompanhe ONEWEB-0690 em tempo real com AllMySat

Download on the App Store